EW5926 Weather Reports


time (UTC)temp
C
wind
direction
speed
KPH
gust
KPH
rain 1hr
cm
rain 24hr
cm
rain mn
cm
humidity
%
barometer
mb
20260505060024 18 152 4.8 8.0 0.00 0.00 0.00 95 1012.2
20260505054513 18 172 3.2 4.8 0.00 0.00 0.00 97 1012.2
20260505053010 17 154 0.0 0.0 0.00 0.00 0.00 98 1012.3
20260505051511 17 170 0.0 0.0 0.00 0.00 0.00 97 1012.2
20260505041605 16 157 0.0 0.0 0.00 0.00 0.00 97 1012.0
20260505040059 16 157 0.0 0.0 0.00 0.00 0.00 97 1011.9
20260505034558 16 157 0.0 0.0 0.00 0.00 0.00 96 1012.0
20260505033057 16 157 0.0 0.0 0.00 0.00 0.00 96 1011.9
20260505031555 16 157 0.0 0.0 0.00 0.00 0.00 96 1011.8
20260505030111 16 157 0.0 0.0 0.00 0.00 0.00 96 1011.7
20260505024559 17 107 0.0 0.0 0.00 0.00 0.00 96 1011.7
20260505023054 16 107 0.0 0.0 0.00 0.00 0.00 96 1011.7
20260505021552 17 107 0.0 0.0 0.00 0.00 0.00 96 1011.5
20260505020051 17 107 0.0 0.0 0.00 0.00 0.00 96 1011.5
20260505014606 17 107 0.0 0.0 0.00 0.00 0.00 96 1011.5
20260505013052 17 107 0.0 0.0 0.00 0.00 0.00 96 1011.8
20260505011547 17 107 0.0 0.0 0.00 0.00 0.00 96 1011.9
20260505010054 17 107 0.0 3.2 0.00 0.00 0.00 95 1011.9
20260505004550 17 107 0.0 1.6 0.00 0.00 0.00 95 1012.0
20260505003054 17 179 0.0 3.2 0.00 0.00 0.00 95 1012.0
20260505001542 17 179 0.0 1.6 0.00 0.00 0.00 95 1012.3
20260505000038 17 179 0.0 0.0 0.00 0.00 0.00 95 1012.5
20260504234536 17 179 0.0 4.8 0.00 0.00 0.00 94 1012.6
20260504233037 18 202 0.0 3.2 0.00 0.00 0.00 94 1012.6
20260504231533 18 202 0.0 0.0 0.00 0.00 0.00 94 1012.5
20260504230030 18 202 0.0 0.0 0.00 0.00 0.00 94 1012.6
20260504224528 18 202 0.0 1.6 0.00 0.03 0.00 93 1012.8
20260504223032 18 202 0.0 0.0 0.00 0.03 0.00 93 1013.0
20260504221524 18 202 0.0 1.6 0.00 0.03 0.00 93 1013.2
20260504220023 19 202 0.0 3.2 0.00 0.03 0.00 92 1013.3
20260504214523 19 182 0.0 0.0 0.00 0.03 0.00 92 1013.4
20260504213026 19 182 0.0 4.8 0.00 0.03 0.00 92 1013.6
20260504211532 19 183 4.8 9.7 0.00 0.03 0.00 91 1013.7
20260504210019 19 181 3.2 6.4 0.00 0.03 0.00 92 1013.7
20260504204519 20 163 0.0 1.6 0.00 0.13 0.00 90 1013.7
20260504203016 20 92 0.0 3.2 0.00 0.13 0.00 90 1013.6
20260504194523 21 122 0.0 1.6 0.00 0.13 0.00 87 1013.8
20260504184622 23 144 0.0 3.2 0.00 0.15 0.00 80 1013.8
20260504183009 23 54 1.6 8.0 0.00 0.15 0.00 75 1013.7
20260504181605 23 4 3.2 6.4 0.00 0.15 0.00 75 1013.9
20260504180005 23 41 3.2 6.4 0.00 0.15 0.00 79 1013.8
20260504174502 23 35 1.6 4.8 0.00 0.15 0.00 80 1013.6
20260504173001 23 344 0.0 3.2 0.00 0.15 0.00 78 1013.6
20260504171501 24 28 0.0 4.8 0.00 0.15 0.00 75 1013.5
20260504081554 26 134 0.0 6.4 0.00 0.15 0.00 82 1017.7